Precipitable_Water
1.29 1.26 1.26 1.25 1.27 1.28 1.27 1.26 1.26 1.30 1.29 1.29 1.29 1.32 1.35 1.42 1.40 1.36 1.36 1.33 1.32 1.29 1.28 1.29 1.29 1.29 1.28 1.22 1.16 1.12 1.09 1.06 1.06 1.04 1.04 1.04 1.05 1.09 1.12 1.12 1.07 1.07 1.09 1.08 1.10 1.09 1.07 1.05 1.06 1.08 1.10 1.08 1.08 1.08 1.08 1.10 1.11 1.13 1.16 1.09 0.99 0.98 0.94 0.88 0.81 0.77 0.79 0.83 0.79 0.77 0.79 0.81 0.78 0.76 0.68 0.60 0.55 0.56 0.57 0.56 0.56 0.55 0.54 0.53 0.52
1.31 1.30 1.28 1.29 1.31 1.33 1.32 1.29 1.28 1.30 1.27 1.29 1.29 1.30 1.37 1.34 1.33 1.36 1.33 1.34 1.32 1.36 1.34 1.33 1.31 1.27 1.21 1.15 1.12 1.09 1.04 1.01 0.99 0.99 0.98 1.00 1.02 1.08 1.08 1.08 1.06 1.05 1.06 1.04 1.06 1.06 1.05 1.05 1.07 1.07 1.09 1.06 1.06 1.05 1.05 1.05 1.04 1.07 1.08 1.03 0.99 0.97 0.98 0.88 0.82 0.77 0.72 0.76 0.73 0.74 0.72 0.77 0.72 0.76 0.68 0.58 0.54 0.56 0.56 0.56 0.57 0.56 0.55 0.54 0.54
1.30 1.32 1.32 1.31 1.30 1.33 1.28 1.28 1.29 1.29 1.28 1.28 1.30 1.33 1.35 1.35 1.36 1.33 1.31 1.32 1.35 1.32 1.39 1.31 1.26 1.20 1.16 1.12 1.07 1.00 0.97 0.94 0.96 0.97 0.98 0.99 0.99 1.02 1.04 1.04 1.02 1.01 1.00 1.02 1.05 1.07 1.06 1.07 1.05 1.05 1.07 1.05 1.05 1.05 1.05 1.04 1.06 1.08 1.05 1.04 1.02 1.00 0.97 0.93 0.84 0.75 0.71 0.69 0.71 0.67 0.65 0.68 0.67 0.68 0.66 0.59 0.56 0.57 0.56 0.56 0.55 0.55 0.54 0.53 0.53
1.32 1.31 1.33 1.30 1.33 1.33 1.31 1.33 1.28 1.30 1.29 1.31 1.33 1.37 1.36 1.33 1.35 1.34 1.34 1.35 1.32 1.33 1.35 1.31 1.25 1.19 1.12 1.02 0.92 0.87 0.88 0.91 0.96 0.98 0.97 0.96 0.94 0.94 0.94 0.94 0.96 0.99 1.01 1.04 1.07 1.08 1.06 1.03 1.02 1.04 1.05 1.02 1.03 1.03 1.07 1.07 1.04 1.02 0.98 0.97 0.94 0.91 0.87 0.87 0.85 0.77 0.73 0.66 0.66 0.61 0.59 0.55 0.58 0.59 0.58 0.56 0.55 0.57 0.57 0.57 0.56 0.53 0.51 0.51 0.52
1.28 1.29 1.30 1.29 1.27 1.27 1.29 1.29 1.23 1.25 1.32 1.35 1.35 1.35 1.35 1.34 1.34 1.34 1.35 1.34 1.34 1.30 1.25 1.27 1.21 1.12 0.98 0.88 0.85 0.86 0.89 0.96 0.99 0.98 0.95 0.91 0.87 0.86 0.85 0.87 0.90 0.96 1.02 1.07 1.09 1.07 1.06 1.04 1.02 1.03 1.04 1.01 1.03 1.03 1.07 1.00 0.98 0.96 0.94 0.94 0.92 0.92 0.89 0.84 0.82 0.78 0.72 0.67 0.63 0.60 0.59 0.57 0.55 0.55 0.57 0.53 0.54 0.55 0.56 0.52 0.50 0.48 0.47 0.48 0.49
1.22 1.22 1.22 1.21 1.20 1.22 1.23 1.22 1.21 1.25 1.31 1.36 1.35 1.32 1.36 1.33 1.33 1.36 1.36 1.32 1.30 1.29 1.23 1.18 1.07 0.98 0.93 0.89 0.86 0.89 0.94 0.98 0.96 0.91 0.86 0.84 0.85 0.86 0.87 0.87 0.89 0.95 1.03 1.08 1.09 1.09 1.10 1.09 1.09 1.10 1.08 1.07 1.03 1.01 0.98 0.96 0.96 0.93 0.90 0.90 0.91 0.91 0.88 0.87 0.83 0.79 0.76 0.72 0.67 0.66 0.69 0.63 0.59 0.55 0.50 0.45 0.41 0.41 0.44 0.47 0.48 0.46 0.44 0.43 0.45
1.19 1.20 1.24 1.25 1.24 1.23 1.23 1.20 1.26 1.29 1.29 1.33 1.32 1.33 1.34 1.30 1.31 1.31 1.33 1.33 1.29 1.25 1.15 1.06 1.02 0.93 0.91 0.88 0.87 0.89 0.92 0.95 0.92 0.87 0.83 0.82 0.84 0.86 0.88 0.89 0.90 0.93 0.99 1.06 1.09 1.09 1.11 1.10 1.06 1.08 1.07 1.04 0.98 0.94 0.93 0.93 0.91 0.89 0.89 0.89 0.91 0.90 0.87 0.85 0.84 0.80 0.77 0.74 0.72 0.71 0.70 0.71 0.68 0.62 0.62 0.57 0.51 0.50 0.49 0.51 0.51 0.55 0.55 0.52 0.50
1.16 1.17 1.19 1.22 1.22 1.27 1.29 1.27 1.27 1.27 1.28 1.31 1.33 1.34 1.36 1.34 1.32 1.34 1.31 1.28 1.27 1.16 1.02 0.98 0.96 0.90 0.90 0.87 0.89 0.91 0.92 0.92 0.87 0.83 0.83 0.83 0.81 0.84 0.85 0.88 0.89 0.91 0.94 1.00 1.03 1.03 1.06 1.05 1.06 1.04 1.00 0.96 0.92 0.89 0.89 0.84 0.83 0.81 0.83 0.84 0.86 0.86 0.84 0.82 0.80 0.80 0.79 0.77 0.74 0.72 0.74 0.72 0.71 0.72 0.72 0.69 0.64 0.64 0.68 0.66 0.62 0.64 0.65 0.67 0.66
1.09 1.13 1.16 1.18 1.23 1.27 1.27 1.27 1.32 1.29 1.29 1.29 1.31 1.30 1.35 1.36 1.33 1.31 1.27 1.24 1.19 1.07 0.95 0.87 0.83 0.84 0.89 0.87 0.88 0.90 0.91 0.88 0.86 0.86 0.86 0.86 0.87 0.84 0.86 0.88 0.87 0.87 0.89 0.92 0.96 0.98 1.00 0.98 0.95 0.94 0.93 0.92 0.91 0.89 0.88 0.86 0.82 0.78 0.79 0.82 0.83 0.85 0.84 0.81 0.79 0.78 0.77 0.76 0.75 0.76 0.74 0.72 0.71 0.69 0.67 0.66 0.64 0.65 0.69 0.72 0.70 0.71 0.73 0.72 0.75
1.08 1.11 1.14 1.18 1.24 1.29 1.29 1.29 1.30 1.30 1.29 1.31 1.33 1.32 1.32 1.30 1.27 1.25 1.26 1.18 1.14 0.97 0.83 0.81 0.81 0.83 0.86 0.87 0.88 0.88 0.87 0.87 0.86 0.89 0.90 0.87 0.88 0.88 0.89 0.90 0.89 0.89 0.89 0.89 0.92 0.94 0.94 0.94 0.95 0.96 0.95 0.95 0.94 0.94 0.93 0.92 0.92 0.88 0.84 0.83 0.85 0.87 0.86 0.83 0.80 0.79 0.78 0.77 0.77 0.76 0.73 0.72 0.72 0.72 0.69 0.70 0.71 0.72 0.70 0.72 0.69 0.72 0.73 0.72 0.74
1.06 1.10 1.12 1.16 1.23 1.29 1.29 1.29 1.30 1.29 1.29 1.31 1.29 1.29 1.29 1.28 1.22 1.22 1.25 1.20 1.08 0.92 0.84 0.81 0.80 0.81 0.83 0.87 0.86 0.85 0.85 0.84 0.84 0.87 0.88 0.88 0.89 0.90 0.91 0.92 0.92 0.92 0.90 0.89 0.90 0.92 0.93 0.94 0.95 0.95 0.95 0.94 0.94 0.93 0.93 0.92 0.92 0.93 0.95 0.94 0.93 0.89 0.84 0.82 0.82 0.83 0.81 0.80 0.81 0.79 0.76 0.75 0.75 0.76 0.74 0.75 0.77 0.76 0.75 0.75 0.74 0.74 0.71 0.68 0.65
1.08 1.11 1.16 1.19 1.21 1.25 1.29 1.31 1.29 1.29 1.30 1.27 1.29 1.28 1.26 1.23 1.21 1.18 1.21 1.15 1.01 0.93 0.86 0.82 0.82 0.80 0.78 0.82 0.84 0.84 0.83 0.83 0.83 0.86 0.86 0.87 0.90 0.91 0.94 0.94 0.93 0.93 0.93 0.91 0.91 0.91 0.91 0.92 0.94 0.94 0.94 0.94 0.94 0.94 0.93 0.93 0.93 0.93 0.94 0.94 0.95 0.97 0.97 0.92 0.87 0.85 0.85 0.83 0.82 0.81 0.80 0.78 0.78 0.78 0.77 0.77 0.77 0.78 0.78 0.78 0.76 0.75 0.73 0.71 0.71
1.12 1.14 1.17 1.18 1.20 1.26 1.29 1.30 1.29 1.27 1.27 1.27 1.28 1.25 1.27 1.23 1.20 1.16 1.14 1.06 0.97 0.89 0.87 0.81 0.80 0.79 0.77 0.77 0.79 0.82 0.80 0.83 0.85 0.86 0.87 0.89 0.92 0.94 0.94 0.95 0.93 0.94 0.94 0.95 0.95 0.96 0.96 0.96 0.96 1.00 1.02 1.02 1.01 0.99 0.98 0.98 1.00 1.00 1.00 1.00 1.00 0.99 0.96 0.96 0.97 0.95 0.94 0.88 0.85 0.85 0.86 0.85 0.83 0.88 0.94 0.93 0.91 0.82 0.81 0.79 0.79 0.79 0.78 0.75 0.74
1.06 1.10 1.14 1.17 1.19 1.24 1.27 1.26 1.27 1.29 1.29 1.29 1.26 1.23 1.23 1.18 1.12 1.11 1.07 1.00 0.92 0.87 0.84 0.80 0.79 0.78 0.77 0.77 0.79 0.79 0.79 0.83 0.86 0.87 0.89 0.91 0.93 0.94 0.95 0.95 0.96 0.95 0.96 0.98 0.98 0.98 0.98 0.99 1.00 1.01 1.04 1.05 1.05 1.03 1.01 1.00 0.99 0.98 0.98 0.98 0.98 0.99 0.99 1.00 0.98 0.97 0.95 0.91 0.89 0.86 0.92 0.95 0.92 0.96 1.00 1.00 0.91 0.85 0.84 0.83 0.86 0.83 0.82 0.81 0.86
1.02 1.03 1.10 1.15 1.19 1.21 1.24 1.24 1.25 1.26 1.27 1.28 1.24 1.20 1.19 1.15 1.11 1.07 1.01 0.96 0.89 0.84 0.80 0.79 0.79 0.79 0.79 0.81 0.79 0.78 0.81 0.87 0.89 0.91 0.91 0.92 0.94 0.95 0.97 0.99 1.00 1.00 1.01 1.01 1.01 1.02 1.03 1.04 1.04 1.02 1.02 1.01 1.02 1.00 0.98 0.96 0.94 0.93 0.93 0.93 0.94 0.92 0.91 0.90 0.90 0.92 0.94 0.95 0.95 0.95 0.97 0.99 0.98 0.98 1.00 1.02 0.99 0.99 1.00 0.98 0.99 0.99 0.99 1.00 0.98
0.96 1.01 1.05 1.13 1.17 1.19 1.22 1.23 1.23 1.25 1.22 1.23 1.22 1.18 1.18 1.13 1.10 1.06 1.02 0.99 0.94 0.90 0.86 0.83 0.82 0.82 0.84 0.84 0.81 0.80 0.86 0.91 0.94 0.94 0.94 0.95 0.98 0.99 1.00 1.00 1.01 1.01 1.02 1.05 1.06 1.07 1.07 1.06 1.03 1.02 1.01 1.01 1.02 1.03 1.02 1.00 0.95 0.91 0.88 0.88 0.88 0.87 0.87 0.90 0.92 0.94 0.95 0.96 0.98 0.99 1.01 1.02 1.03 1.04 1.04 1.05 1.04 1.04 1.03 1.04 1.03 0.98 0.93 0.87 0.83
0.93 0.97 1.02 1.08 1.15 1.19 1.20 1.19 1.19 1.18 1.19 1.15 1.17 1.18 1.16 1.14 1.14 1.06 1.00 0.97 0.93 0.91 0.88 0.88 0.88 0.87 0.87 0.88 0.86 0.86 0.89 0.93 0.96 0.97 0.98 1.01 0.98 0.99 1.00 1.01 1.02 1.05 1.07 1.07 1.09 1.09 1.09 1.07 1.05 1.03 1.02 1.00 1.00 0.99 0.97 0.94 0.89 0.87 0.86 0.84 0.83 0.83 0.86 0.94 0.99 1.01 1.02 1.03 1.04 1.05 1.06 1.07 1.07 1.08 1.07 1.06 1.05 1.04 1.00 0.93 0.88 0.91 0.86 0.80 0.82
0.88 0.92 0.98 1.04 1.09 1.17 1.20 1.22 1.19 1.17 1.18 1.16 1.14 1.16 1.13 1.15 1.11 1.09 1.00 0.96 0.94 0.92 0.91 0.91 0.93 0.93 0.93 0.94 0.95 0.93 0.94 0.97 0.97 0.99 1.02 1.03 1.04 1.02 1.02 0.98 1.03 1.04 1.05 1.07 1.08 1.08 1.08 1.06 1.03 1.00 0.97 0.96 0.96 0.94 0.91 0.88 0.85 0.84 0.82 0.79 0.79 0.81 0.87 0.95 0.99 1.02 1.06 1.07 1.06 1.06 1.06 1.05 1.04 1.04 1.03 1.02 1.01 1.01 0.95 0.86 0.90 0.91 0.85 0.84 0.79
0.87 0.89 0.93 0.99 1.05 1.11 1.15 1.18 1.20 1.20 1.18 1.17 1.17 1.15 1.14 1.15 1.12 1.12 1.10 1.02 0.98 0.97 0.96 0.94 0.95 0.97 0.97 0.99 1.03 1.01 1.00 1.02 1.04 1.04 1.04 1.07 1.08 1.06 1.03 1.02 1.02 1.00 1.01 1.01 1.02 1.00 1.00 1.00 1.00 0.98 0.96 0.94 0.92 0.92 0.91 0.91 0.87 0.85 0.83 0.80 0.80 0.82 0.86 0.89 0.89 0.90 0.93 0.95 0.97 0.99 0.98 0.99 0.98 0.98 0.98 0.98 0.98 0.98 0.97 0.94 0.94 0.89 0.83 0.82 0.81
0.83 0.88 0.94 0.98 1.00 1.05 1.09 1.11 1.13 1.17 1.17 1.18 1.17 1.16 1.16 1.16 1.11 1.10 1.05 1.02 1.01 1.00 1.01 1.00 0.97 0.99 0.99 0.96 1.00 1.03 1.03 1.03 1.06 1.07 1.07 1.07 1.06 1.06 1.07 1.02 0.99 0.99 0.99 0.97 0.96 0.97 0.98 0.97 0.97 0.95 0.94 0.94 0.94 0.95 0.93 0.91 0.90 0.88 0.86 0.82 0.80 0.78 0.85 0.85 0.85 0.84 0.82 0.81 0.81 0.82 0.83 0.87 0.90 0.92 0.92 0.91 0.91 0.91 0.89 0.88 0.85 0.81 0.76 0.73 0.72
0.78 0.84 0.91 0.95 0.98 0.99 1.04 1.08 1.08 1.11 1.15 1.15 1.16 1.16 1.16 1.14 1.13 1.09 1.06 1.06 1.05 1.01 1.02 1.01 0.99 1.00 0.96 0.99 1.00 1.02 1.02 1.02 1.04 1.05 1.05 1.04 1.04 1.00 0.98 0.95 0.94 0.92 0.91 0.92 0.91 0.90 0.91 0.92 0.93 0.93 0.93 0.94 0.94 0.95 0.94 0.93 0.92 0.90 0.87 0.83 0.82 0.83 0.83 0.79 0.79 0.79 0.77 0.76 0.76 0.76 0.76 0.76 0.76 0.76 0.75 0.74 0.74 0.74 0.75 0.75 0.75 0.74 0.70 0.65 0.62
0.77 0.77 0.84 0.88 0.93 0.97 0.99 1.03 1.06 1.09 1.12 1.15 1.13 1.13 1.13 1.11 1.08 1.11 1.13 1.08 1.04 1.00 1.04 1.01 1.01 1.00 0.98 1.00 1.03 1.03 1.07 1.06 1.04 1.05 1.05 1.05 1.04 1.02 0.98 0.97 0.96 0.91 0.88 0.87 0.88 0.88 0.89 0.90 0.91 0.93 0.94 0.94 0.94 0.95 0.94 0.93 0.91 0.87 0.84 0.81 0.78 0.75 0.72 0.71 0.71 0.69 0.67 0.63 0.60 0.57 0.54 0.52 0.50 0.50 0.53 0.53 0.52 0.54 0.55 0.56 0.57 0.58 0.58 0.57 0.54
0.76 0.77 0.78 0.82 0.85 0.90 0.96 0.99 1.04 1.06 1.09 1.12 1.12 1.11 1.13 1.10 1.09 1.08 1.06 1.05 1.03 1.02 1.00 1.00 0.99 0.98 0.99 0.99 1.01 1.02 1.06 1.05 1.04 1.03 1.03 1.02 1.01 1.00 0.99 0.97 0.97 0.97 0.93 0.89 0.89 0.90 0.93 0.93 0.95 0.95 0.95 0.96 0.95 0.94 0.91 0.88 0.83 0.79 0.76 0.73 0.71 0.69 0.67 0.63 0.57 0.51 0.45 0.41 0.37 0.34 0.35 0.36 0.34 0.35 0.37 0.40 0.44 0.46 0.46 0.47 0.48 0.48 0.49 0.49 0.51
0.74 0.75 0.75 0.76 0.80 0.83 0.87 0.94 0.99 1.02 1.04 1.07 1.08 1.07 1.08 1.08 1.08 1.05 1.03 1.01 0.98 0.97 0.97 0.97 0.96 0.94 0.92 0.93 0.94 0.98 1.02 1.03 1.02 1.03 1.02 1.02 1.02 1.01 1.00 1.00 1.00 0.98 0.96 0.94 0.94 0.93 0.93 0.95 0.97 0.98 0.97 0.94 0.90 0.86 0.82 0.79 0.75 0.73 0.70 0.68 0.64 0.59 0.52 0.44 0.39 0.35 0.33 0.30 0.29 0.29 0.29 0.32 0.34 0.35 0.37 0.40 0.42 0.44 0.46 0.47 0.48 0.49 0.48 0.48 0.49
0.74 0.73 0.73 0.72 0.74 0.78 0.82 0.85 0.90 0.97 1.00 1.04 1.04 1.05 1.06 1.08 1.05 1.05 1.03 1.01 0.99 0.95 0.94 0.95 0.93 0.93 0.92 0.91 0.92 0.94 0.96 0.96 0.96 0.97 0.98 0.98 0.98 0.98 0.97 0.96 0.94 0.93 0.91 0.91 0.90 0.89 0.90 0.90 0.89 0.88 0.85 0.82 0.79 0.77 0.74 0.71 0.68 0.64 0.59 0.53 0.48 0.43 0.39 0.36 0.34 0.32 0.29 0.28 0.28 0.30 0.31 0.33 0.35 0.37 0.41 0.43 0.45 0.45 0.43 0.44 0.46 0.47 0.47 0.47 0.48
0.75 0.74 0.74 0.73 0.71 0.74 0.78 0.82 0.85 0.92 0.98 1.00 1.01 1.03 1.02 1.04 1.03 1.03 1.03 1.00 0.98 0.96 0.94 0.93 0.91 0.90 0.88 0.88 0.87 0.88 0.89 0.90 0.90 0.91 0.91 0.90 0.89 0.89 0.88 0.87 0.86 0.84 0.82 0.81 0.81 0.79 0.77 0.77 0.77 0.75 0.73 0.71 0.68 0.64 0.59 0.56 0.53 0.50 0.47 0.45 0.42 0.40 0.37 0.35 0.32 0.30 0.28 0.28 0.29 0.28 0.30 0.32 0.34 0.37 0.39 0.41 0.40 0.39 0.39 0.39 0.40 0.40 0.41 0.41 0.41
0.72 0.73 0.72 0.73 0.74 0.73 0.71 0.76 0.80 0.86 0.91 0.97 0.99 0.98 0.98 1.00 1.00 0.99 0.99 0.97 0.96 0.94 0.92 0.92 0.89 0.88 0.86 0.86 0.87 0.87 0.88 0.88 0.87 0.86 0.85 0.84 0.82 0.82 0.81 0.80 0.79 0.77 0.74 0.71 0.69 0.66 0.64 0.63 0.62 0.62 0.61 0.61 0.58 0.55 0.50 0.49 0.47 0.45 0.44 0.43 0.41 0.39 0.37 0.35 0.32 0.30 0.29 0.28 0.28 0.29 0.31 0.33 0.35 0.36 0.35 0.36 0.35 0.36 0.38 0.37 0.37 0.37 0.38 0.39 0.37
0.74 0.72 0.71 0.72 0.72 0.73 0.73 0.71 0.69 0.73 0.81 0.85 0.91 0.95 0.95 0.95 0.93 0.92 0.92 0.91 0.90 0.87 0.89 0.87 0.86 0.85 0.84 0.83 0.83 0.82 0.80 0.79 0.79 0.78 0.78 0.77 0.77 0.77 0.75 0.73 0.70 0.66 0.63 0.61 0.58 0.57 0.54 0.53 0.53 0.53 0.53 0.52 0.50 0.48 0.46 0.44 0.43 0.42 0.42 0.41 0.40 0.39 0.37 0.36 0.34 0.32 0.31 0.31 0.31 0.32 0.33 0.34 0.33 0.33 0.35 0.35 0.35 0.36 0.38 0.36 0.35 0.35 0.35 0.34 0.32
0.75 0.74 0.74 0.73 0.72 0.72 0.72 0.75 0.74 0.71 0.69 0.74 0.80 0.84 0.88 0.90 0.89 0.89 0.91 0.91 0.89 0.87 0.85 0.84 0.84 0.84 0.83 0.81 0.79 0.77 0.77 0.77 0.78 0.81 0.79 0.78 0.74 0.71 0.67 0.63 0.60 0.57 0.55 0.54 0.52 0.51 0.48 0.47 0.45 0.45 0.45 0.44 0.44 0.43 0.43 0.42 0.42 0.42 0.40 0.39 0.37 0.35 0.33 0.32 0.29 0.29 0.30 0.31 0.30 0.29 0.30 0.32 0.32 0.34 0.34 0.33 0.34 0.35 0.38 0.36 0.36 0.35 0.36 0.36 0.34
0.72 0.72 0.73 0.73 0.73 0.74 0.74 0.73 0.73 0.73 0.73 0.72 0.71 0.73 0.78 0.82 0.84 0.85 0.84 0.86 0.86 0.86 0.85 0.83 0.83 0.83 0.81 0.81 0.80 0.76 0.74 0.76 0.77 0.76 0.74 0.73 0.71 0.66 0.62 0.59 0.56 0.53 0.51 0.50 0.48 0.44 0.44 0.42 0.43 0.43 0.43 0.42 0.41 0.40 0.39 0.39 0.38 0.37 0.36 0.35 0.34 0.33 0.31 0.30 0.30 0.30 0.31 0.31 0.31 0.31 0.31 0.31 0.31 0.32 0.32 0.32 0.33 0.35 0.37 0.36 0.35 0.36 0.35 0.34 0.34
0.59 0.62 0.65 0.67 0.69 0.70 0.72 0.74 0.76 0.75 0.74 0.73 0.73 0.73 0.73 0.74 0.73 0.73 0.75 0.77 0.79 0.79 0.80 0.80 0.81 0.80 0.78 0.76 0.77 0.76 0.74 0.72 0.69 0.65 0.63 0.62 0.61 0.57 0.53 0.51 0.50 0.49 0.49 0.46 0.45 0.43 0.41 0.40 0.40 0.41 0.40 0.40 0.38 0.37 0.36 0.34 0.33 0.32 0.32 0.32 0.32 0.31 0.30 0.30 0.31 0.33 0.33 0.32 0.32 0.31 0.31 0.30 0.29 0.30 0.31 0.32 0.33 0.34 0.36 0.37 0.37 0.37 0.36 0.35 0.34
0.56 0.54 0.55 0.56 0.59 0.61 0.65 0.66 0.67 0.68 0.70 0.72 0.72 0.72 0.71 0.71 0.73 0.76 0.76 0.75 0.74 0.73 0.73 0.73 0.74 0.74 0.73 0.72 0.69 0.67 0.65 0.63 0.60 0.57 0.55 0.55 0.55 0.52 0.50 0.50 0.50 0.50 0.49 0.48 0.42 0.41 0.41 0.39 0.38 0.38 0.37 0.35 0.35 0.34 0.33 0.32 0.32 0.30 0.29 0.28 0.29 0.31 0.31 0.31 0.34 0.33 0.32 0.30 0.29 0.29 0.29 0.29 0.30 0.31 0.32 0.33 0.34 0.34 0.35 0.36 0.36 0.36 0.37 0.37 0.37
0.56 0.56 0.56 0.57 0.56 0.55 0.54 0.54 0.57 0.60 0.62 0.63 0.63 0.63 0.62 0.60 0.58 0.59 0.64 0.67 0.67 0.65 0.65 0.65 0.64 0.63 0.62 0.60 0.59 0.56 0.55 0.53 0.52 0.49 0.48 0.49 0.51 0.51 0.50 0.49 0.49 0.50 0.49 0.45 0.41 0.39 0.39 0.37 0.35 0.35 0.34 0.33 0.34 0.33 0.33 0.32 0.31 0.30 0.30 0.29 0.30 0.31 0.33 0.33 0.34 0.32 0.30 0.29 0.29 0.29 0.30 0.31 0.32 0.32 0.33 0.34 0.34 0.33 0.35 0.36 0.37 0.38 0.38 0.37 0.38
0.53 0.53 0.53 0.53 0.54 0.54 0.54 0.53 0.52 0.52 0.54 0.57 0.58 0.58 0.59 0.59 0.58 0.57 0.55 0.55 0.56 0.58 0.59 0.59 0.58 0.56 0.55 0.55 0.53 0.52 0.51 0.50 0.49 0.49 0.48 0.50 0.52 0.51 0.49 0.48 0.48 0.48 0.45 0.41 0.39 0.36 0.35 0.34 0.34 0.34 0.34 0.34 0.33 0.33 0.32 0.31 0.31 0.31 0.31 0.31 0.32 0.32 0.32 0.33 0.32 0.31 0.31 0.32 0.31 0.32 0.32 0.33 0.33 0.32 0.33 0.34 0.35 0.36 0.36 0.37 0.38 0.37 0.37 0.37 0.37
0.49 0.49 0.51 0.52 0.51 0.50 0.51 0.52 0.53 0.52 0.51 0.50 0.51 0.53 0.53 0.54 0.54 0.52 0.51 0.49 0.48 0.48 0.49 0.52 0.54 0.54 0.52 0.51 0.50 0.49 0.49 0.49 0.49 0.49 0.50 0.50 0.51 0.50 0.49 0.46 0.43 0.42 0.42 0.41 0.39 0.36 0.35 0.34 0.33 0.33 0.33 0.32 0.33 0.33 0.32 0.32 0.32 0.32 0.31 0.31 0.31 0.31 0.32 0.32 0.32 0.33 0.33 0.33 0.33 0.33 0.33 0.33 0.34 0.34 0.35 0.34 0.35 0.35 0.36 0.36 0.37 0.37 0.36 0.36 0.36
0.46 0.45 0.45 0.47 0.49 0.49 0.49 0.49 0.49 0.49 0.49 0.48 0.48 0.47 0.48 0.47 0.47 0.47 0.47 0.47 0.46 0.46 0.47 0.48 0.49 0.50 0.50 0.49 0.49 0.48 0.48 0.48 0.48 0.49 0.49 0.50 0.49 0.49 0.44 0.42 0.40 0.39 0.39 0.39 0.38 0.36 0.35 0.33 0.33 0.33 0.34 0.34 0.35 0.34 0.34 0.33 0.32 0.31 0.31 0.30 0.30 0.31 0.32 0.32 0.33 0.33 0.33 0.33 0.33 0.34 0.34 0.35 0.36 0.36 0.36 0.36 0.36 0.35 0.35 0.36 0.36 0.36 0.36 0.36 0.37
0.45 0.45 0.45 0.46 0.47 0.47 0.48 0.48 0.48 0.48 0.47 0.47 0.47 0.46 0.47 0.46 0.46 0.45 0.44 0.43 0.43 0.44 0.44 0.45 0.46 0.47 0.48 0.48 0.48 0.47 0.47 0.47 0.47 0.47 0.47 0.47 0.48 0.46 0.44 0.41 0.39 0.38 0.37 0.37 0.36 0.35 0.33 0.34 0.35 0.35 0.35 0.34 0.34 0.34 0.34 0.33 0.32 0.32 0.32 0.32 0.32 0.33 0.33 0.33 0.34 0.34 0.33 0.33 0.34 0.35 0.35 0.35 0.36 0.37 0.36 0.35 0.35 0.36 0.36 0.36 0.36 0.36 0.36 0.36 0.36
0.42 0.43 0.43 0.44 0.44 0.44 0.45 0.46 0.47 0.47 0.47 0.47 0.46 0.46 0.46 0.45 0.43 0.42 0.42 0.42 0.42 0.42 0.43 0.43 0.44 0.43 0.42 0.43 0.47 0.45 0.45 0.45 0.44 0.42 0.42 0.42 0.42 0.41 0.40 0.39 0.38 0.35 0.34 0.34 0.34 0.33 0.33 0.34 0.34 0.33 0.33 0.33 0.33 0.33 0.32 0.32 0.33 0.33 0.33 0.33 0.33 0.33 0.33 0.33 0.34 0.34 0.34 0.34 0.35 0.36 0.36 0.36 0.37 0.36 0.36 0.35 0.35 0.35 0.35 0.35 0.35 0.35 0.35 0.35 0.35
0.43 0.43 0.42 0.42 0.42 0.43 0.43 0.42 0.42 0.42 0.43 0.44 0.45 0.45 0.45 0.45 0.44 0.43 0.43 0.42 0.41 0.41 0.40 0.41 0.41 0.41 0.41 0.43 0.43 0.44 0.42 0.39 0.37 0.36 0.36 0.36 0.37 0.36 0.36 0.35 0.34 0.33 0.34 0.34 0.34 0.34 0.33 0.32 0.32 0.32 0.31 0.31 0.31 0.31 0.32 0.32 0.33 0.34 0.33 0.33 0.32 0.32 0.32 0.34 0.34 0.35 0.35 0.34 0.36 0.37 0.37 0.37 0.37 0.37 0.37 0.36 0.35 0.35 0.34 0.34 0.34 0.34 0.33 0.33 0.33
0.41 0.42 0.43 0.43 0.42 0.42 0.41 0.41 0.40 0.39 0.39 0.39 0.40 0.42 0.42 0.43 0.42 0.42 0.41 0.41 0.40 0.39 0.39 0.38 0.38 0.39 0.41 0.42 0.42 0.43 0.40 0.38 0.37 0.36 0.34 0.35 0.35 0.35 0.36 0.35 0.34 0.34 0.34 0.33 0.33 0.32 0.31 0.30 0.31 0.30 0.30 0.30 0.30 0.31 0.32 0.32 0.33 0.33 0.33 0.33 0.33 0.32 0.34 0.35 0.36 0.36 0.35 0.35 0.36 0.37 0.37 0.37 0.37 0.37 0.37 0.36 0.35 0.35 0.34 0.33 0.33 0.33 0.32 0.32 0.32
0.39 0.40 0.40 0.41 0.41 0.40 0.40 0.39 0.39 0.39 0.39 0.39 0.40 0.40 0.40 0.41 0.41 0.40 0.39 0.38 0.38 0.37 0.37 0.36 0.36 0.38 0.40 0.41 0.42 0.42 0.40 0.38 0.36 0.36 0.35 0.35 0.35 0.35 0.35 0.35 0.34 0.33 0.33 0.32 0.32 0.31 0.31 0.30 0.30 0.30 0.30 0.31 0.31 0.31 0.32 0.32 0.33 0.33 0.34 0.34 0.34 0.35 0.36 0.37 0.37 0.36 0.37 0.36 0.37 0.37 0.38 0.38 0.38 0.37 0.36 0.36 0.36 0.35 0.34 0.34 0.33 0.32 0.32 0.31 0.30
0.37 0.37 0.37 0.37 0.38 0.37 0.36 0.36 0.37 0.38 0.38 0.38 0.38 0.38 0.39 0.39 0.39 0.38 0.37 0.37 0.36 0.36 0.35 0.35 0.36 0.38 0.40 0.41 0.41 0.42 0.41 0.39 0.38 0.36 0.36 0.36 0.36 0.35 0.35 0.35 0.35 0.34 0.34 0.33 0.33 0.32 0.32 0.31 0.30 0.31 0.30 0.30 0.31 0.31 0.32 0.32 0.33 0.34 0.35 0.35 0.35 0.36 0.36 0.37 0.37 0.38 0.38 0.38 0.38 0.39 0.38 0.38 0.38 0.38 0.38 0.38 0.36 0.35 0.34 0.33 0.32 0.31 0.30 0.29 0.29
0.36 0.36 0.36 0.36 0.35 0.35 0.35 0.35 0.36 0.36 0.37 0.37 0.37 0.37 0.37 0.37 0.36 0.36 0.35 0.36 0.36 0.35 0.34 0.34 0.35 0.37 0.39 0.40 0.40 0.41 0.40 0.40 0.39 0.37 0.37 0.36 0.36 0.36 0.36 0.36 0.36 0.35 0.35 0.35 0.35 0.34 0.32 0.31 0.31 0.30 0.30 0.30 0.31 0.31 0.32 0.33 0.35 0.36 0.37 0.37 0.36 0.36 0.36 0.37 0.37 0.38 0.38 0.37 0.37 0.37 0.37 0.37 0.37 0.37 0.38 0.38 0.37 0.35 0.33 0.31 0.30 0.29 0.29 0.28 0.28
0.36 0.35 0.36 0.36 0.35 0.34 0.35 0.35 0.35 0.35 0.36 0.37 0.37 0.38 0.37 0.37 0.36 0.35 0.34 0.35 0.35 0.35 0.35 0.35 0.36 0.37 0.37 0.38 0.38 0.38 0.39 0.39 0.39 0.37 0.37 0.37 0.37 0.37 0.37 0.36 0.36 0.35 0.35 0.34 0.34 0.33 0.32 0.31 0.30 0.30 0.30 0.30 0.31 0.32 0.34 0.35 0.37 0.37 0.38 0.37 0.36 0.36 0.37 0.37 0.37 0.37 0.37 0.37 0.37 0.37 0.36 0.37 0.37 0.37 0.36 0.35 0.34 0.32 0.31 0.29 0.28 0.27 0.26 0.25 0.25
0.36 0.36 0.35 0.35 0.35 0.34 0.34 0.35 0.35 0.35 0.35 0.35 0.36 0.36 0.37 0.36 0.35 0.35 0.35 0.35 0.36 0.36 0.37 0.36 0.36 0.36 0.37 0.38 0.37 0.36 0.38 0.38 0.38 0.37 0.37 0.38 0.38 0.38 0.37 0.37 0.36 0.35 0.34 0.34 0.33 0.32 0.31 0.30 0.30 0.29 0.27 0.28 0.30 0.31 0.33 0.34 0.36 0.38 0.39 0.38 0.37 0.36 0.37 0.37 0.37 0.38 0.38 0.37 0.37 0.37 0.36 0.36 0.36 0.35 0.33 0.31 0.30 0.28 0.26 0.25 0.24 0.24 0.23 0.23 0.22
0.36 0.35 0.35 0.35 0.35 0.35 0.35 0.35 0.36 0.36 0.35 0.35 0.34 0.34 0.34 0.34 0.35 0.35 0.36 0.36 0.37 0.37 0.37 0.37 0.37 0.37 0.36 0.36 0.37 0.38 0.38 0.38 0.38 0.38 0.38 0.38 0.38 0.38 0.37 0.36 0.36 0.35 0.34 0.33 0.32 0.32 0.30 0.28 0.27 0.27 0.27 0.27 0.28 0.30 0.32 0.33 0.34 0.36 0.38 0.39 0.39 0.39 0.40 0.40 0.40 0.40 0.39 0.38 0.37 0.37 0.36 0.35 0.32 0.30 0.28 0.27 0.26 0.24 0.24 0.23 0.22 0.21 0.20 0.20 0.19
0.36 0.37 0.37 0.37 0.36 0.36 0.36 0.36 0.36 0.36 0.35 0.35 0.34 0.34 0.33 0.33 0.33 0.34 0.35 0.36 0.37 0.37 0.38 0.38 0.38 0.37 0.37 0.36 0.35 0.37 0.38 0.39 0.38 0.38 0.37 0.37 0.36 0.36 0.36 0.35 0.35 0.34 0.33 0.33 0.32 0.31 0.28 0.26 0.26 0.25 0.25 0.26 0.26 0.27 0.30 0.31 0.32 0.34 0.35 0.37 0.38 0.39 0.40 0.40 0.39 0.39 0.37 0.36 0.35 0.33 0.31 0.29 0.28 0.27 0.26 0.25 0.24 0.22 0.21 0.19 0.18 0.16 0.15 0.15 0.15
0.37 0.37 0.38 0.38 0.38 0.37 0.36 0.36 0.36 0.36 0.36 0.35 0.35 0.35 0.36 0.35 0.35 0.35 0.35 0.35 0.35 0.36 0.37 0.37 0.38 0.38 0.38 0.37 0.37 0.36 0.36 0.37 0.38 0.37 0.37 0.36 0.36 0.37 0.37 0.36 0.35 0.35 0.34 0.33 0.32 0.31 0.27 0.25 0.24 0.23 0.22 0.22 0.22 0.24 0.26 0.28 0.30 0.31 0.32 0.33 0.34 0.34 0.34 0.34 0.33 0.31 0.31 0.29 0.28 0.27 0.26 0.25 0.24 0.23 0.22 0.21 0.19 0.17 0.16 0.14 0.13 0.14 0.14 0.15 0.16
0.36 0.36 0.36 0.37 0.37 0.38 0.38 0.37 0.37 0.37 0.37 0.37 0.38 0.38 0.38 0.38 0.38 0.38 0.37 0.37 0.37 0.36 0.36 0.36 0.36 0.37 0.37 0.38 0.38 0.37 0.37 0.37 0.36 0.36 0.37 0.37 0.38 0.38 0.38 0.36 0.36 0.35 0.34 0.32 0.31 0.29 0.25 0.23 0.21 0.20 0.19 0.18 0.18 0.18 0.20 0.22 0.24 0.26 0.27 0.28 0.28 0.28 0.27 0.27 0.27 0.26 0.26 0.24 0.23 0.22 0.21 0.20 0.18 0.17 0.17 0.16 0.15 0.15 0.14 0.14 0.14 0.15 0.15 0.16 0.16
0.34 0.34 0.33 0.34 0.34 0.35 0.37 0.37 0.37 0.38 0.38 0.38 0.39 0.39 0.40 0.40 0.40 0.40 0.40 0.39 0.39 0.38 0.37 0.37 0.37 0.37 0.37 0.37 0.37 0.37 0.37 0.37 0.36 0.36 0.36 0.36 0.37 0.37 0.36 0.35 0.35 0.34 0.33 0.33 0.31 0.28 0.25 0.23 0.20 0.19 0.18 0.17 0.16 0.16 0.16 0.17 0.18 0.19 0.21 0.23 0.23 0.23 0.24 0.24 0.23 0.22 0.21 0.20 0.18 0.17 0.15 0.14 0.13 0.14 0.14 0.15 0.15 0.15 0.14 0.14 0.15 0.15 0.15 0.15 0.15
0.33 0.34 0.33 0.34 0.33 0.33 0.33 0.34 0.34 0.34 0.33 0.32 0.32 0.33 0.34 0.35 0.36 0.38 0.39 0.39 0.40 0.40 0.40 0.39 0.38 0.37 0.37 0.37 0.37 0.37 0.38 0.38 0.38 0.37 0.36 0.36 0.36 0.36 0.35 0.35 0.34 0.34 0.33 0.32 0.30 0.27 0.25 0.23 0.21 0.19 0.17 0.16 0.15 0.15 0.15 0.15 0.15 0.15 0.16 0.17 0.18 0.18 0.18 0.18 0.18 0.18 0.17 0.16 0.15 0.14 0.14 0.14 0.13 0.14 0.14 0.15 0.15 0.14 0.14 0.15 0.16 0.15 0.15 0.16 0.16
Wind_Speed
18 19 20 20 21 21 21 20 19 20 21 21 21 21 21 21 21 20 19 19 18 18 19 19 19 18 18 18 17 17 16 15 15 15 14 14 14 14 14 13 13 12 12 12 11 11 11 11 11 11 10 11 11 11 11 12 12 12 12 12 12 12 12 12 11 10 11 11 11 11 11 11 11 12 12 12 12 12 11 11 11 11 11 11 11
17 18 19 20 20 20 20 19 19 19 20 21 21 20 20 20 20 19 19 19 19 19 19 19 18 18 18 17 17 17 16 16 15 14 14 14 14 14 14 13 13 13 12 12 12 11 11 11 11 10 10 10 11 11 11 11 11 12 12 12 12 12 12 12 12 11 11 12 12 12 12 12 12 12 13 12 12 13 12 12 12 12 12 12 12
14 16 18 19 19 18 18 17 18 18 19 20 20 20 19 19 19 19 19 19 19 19 19 18 18 18 17 17 17 17 16 16 15 14 14 14 14 14 14 13 13 13 12 12 12 11 11 11 11 11 10 10 10 10 11 11 11 11 12 12 12 13 13 13 12 12 12 13 13 13 13 13 13 13 13 14 14 14 13 13 13 13 13 14 14
11 13 15 17 17 17 17 17 18 18 19 19 20 19 19 18 18 19 19 19 19 19 18 18 18 18 17 17 17 17 17 16 15 14 14 14 14 14 14 13 13 13 12 12 12 12 11 11 11 11 10 10 10 11 11 10 11 11 11 12 12 13 13 13 13 13 13 13 13 13 13 13 13 13 14 14 14 15 14 14 14 15 15 15 15
9 11 12 13 15 16 16 17 18 19 19 19 19 19 19 18 18 19 19 19 20 19 19 18 18 17 17 17 17 17 17 16 16 15 14 14 14 14 14 13 13 13 13 13 12 12 12 12 11 11 11 10 10 10 10 10 10 11 11 11 12 12 13 13 14 13 13 13 13 13 13 13 13 13 13 14 14 15 15 15 16 16 16 16 17
9 10 11 12 14 15 16 17 18 18 18 18 19 20 19 19 19 19 19 19 20 20 19 19 18 18 18 17 17 17 17 16 16 15 14 14 14 14 14 13 13 13 13 13 13 13 12 12 12 11 11 11 10 10 10 10 10 11 11 11 12 12 13 13 13 14 14 14 13 13 13 13 14 14 14 14 15 15 15 16 16 17 17 17 17
10 10 12 13 14 14 15 16 16 17 17 18 19 19 19 19 19 19 19 19 19 19 19 19 18 18 18 17 17 17 17 16 15 15 15 15 14 14 14 14 13 13 14 14 13 13 13 12 12 11 11 11 11 11 11 11 12 12 13 13 13 13 13 13 14 14 14 14 14 14 14 14 14 14 14 14 15 16 16 17 18 18 18 18 18
10 11 12 12 13 13 14 15 15 16 17 18 18 18 19 20 19 19 19 20 19 19 19 19 19 18 18 18 17 17 17 16 15 15 15 15 15 15 15 14 13 13 13 13 13 13 12 12 11 11 11 11 11 11 11 11 12 12 13 14 14 14 14 14 14 15 15 15 15 15 15 15 15 15 15 15 16 17 18 18 19 19 19 19 19
10 10 11 11 12 12 13 14 15 16 17 18 18 18 18 19 18 18 19 20 19 18 18 19 19 19 19 18 17 17 16 16 15 15 15 15 15 15 15 14 14 13 13 13 13 12 12 11 11 10 10 10 10 10 11 11 11 12 12 13 14 14 15 15 15 15 16 16 16 15 15 16 16 16 16 17 18 19 18 19 20 20 20 21 21
9 9 9 10 10 11 12 13 14 15 17 17 18 18 18 18 18 19 20 19 19 18 18 18 19 19 19 19 18 17 16 15 15 15 15 14 14 14 15 15 14 13 13 12 12 12 11 11 11 10 10 10 10 10 11 11 11 12 12 12 13 14 15 16 16 16 16 17 17 16 16 17 18 18 19 19 19 20 20 20 21 21 22 22 23
9 8 8 8 9 9 10 11 13 15 16 16 17 17 17 18 18 19 20 20 19 18 18 18 19 19 19 19 18 17 16 16 15 15 14 14 14 15 15 14 14 13 13 12 12 11 11 11 11 11 11 11 11 11 11 11 11 11 12 12 13 13 14 15 16 16 16 17 17 17 18 19 19 20 20 21 21 21 22 22 22 22 23 23 23
7 6 6 7 7 9 10 11 12 15 16 16 16 17 17 17 18 19 19 19 19 18 18 19 19 18 19 19 18 17 17 16 16 15 15 15 15 15 15 14 14 13 13 12 12 12 11 11 11 11 11 11 11 11 11 11 12 12 12 12 12 13 13 13 14 16 16 17 18 18 19 20 20 20 21 21 22 22 23 23 23 24 24 24 24
6 6 6 6 6 8 9 11 13 14 16 16 16 17 18 18 18 19 19 18 18 18 18 18 18 18 19 19 18 18 17 16 16 16 15 15 15 15 15 14 14 13 13 13 12 12 12 12 12 12 12 12 12 12 12 12 12 12 12 12 13 13 13 14 14 15 16 17 18 19 19 19 20 20 20 21 21 22 22 23 23 24 24 25 25
6 6 6 5 5 6 8 10 12 14 15 16 16 17 18 18 18 19 18 18 17 17 18 18 18 19 19 19 18 18 17 17 16 16 15 15 15 14 15 14 14 13 13 13 13 13 13 12 12 12 12 12 12 12 12 12 12 12 13 13 14 14 15 15 15 16 17 17 18 19 19 19 20 20 20 20 21 21 22 22 23 24 25 25 26
6 6 5 5 4 4 5 8 11 13 14 15 15 17 17 18 18 19 18 17 18 18 18 18 19 19 19 19 18 18 17 17 17 16 16 16 15 15 14 14 13 13 13 13 13 13 13 12 12 12 12 12 12 13 13 13 13 13 13 14 14 15 15 16 17 17 18 18 18 19 19 19 20 20 21 21 21 22 22 23 24 24 25 26 27
6 6 5 4 4 3 4 6 8 11 13 14 15 16 17 17 19 19 18 18 18 18 18 18 19 19 19 19 19 18 18 18 17 17 17 16 16 15 15 14 13 13 13 13 13 13 13 13 13 13 13 13 13 13 14 15 15 15 15 16 16 17 17 18 18 18 19 19 19 19 20 20 20 21 21 22 22 23 23 24 25 25 26 27 28
6 6 5 4 4 4 4 5 6 9 12 13 15 16 17 17 18 18 18 18 18 17 18 18 19 19 19 18 18 18 18 18 18 18 17 17 16 16 15 15 15 14 14 14 14 14 13 14 14 14 14 15 15 15 16 16 17 17 17 18 18 18 19 19 19 19 19 20 20 20 21 21 21 22 22 23 24 25 25 26 27 27 28 29 30
6 6 6 5 5 4 4 5 5 7 9 12 14 16 16 17 17 17 18 18 18 18 18 18 18 19 19 19 19 18 18 18 17 17 17 17 17 16 15 15 15 16 15 15 15 15 15 15 15 16 16 16 17 17 18 18 18 18 18 18 19 19 19 19 19 20 20 20 20 21 21 22 23 23 24 25 26 27 28 28 29 30 30 31 32
7 7 7 6 5 5 5 5 6 6 8 10 12 15 16 17 17 17 17 18 18 18 18 18 18 18 19 19 19 19 19 18 17 17 17 17 18 18 17 16 17 17 17 17 17 18 18 18 18 18 18 18 19 19 20 20 19 19 18 18 18 18 18 18 19 19 20 20 21 21 22 23 24 25 25 26 27 28 29 30 31 31 32 33 34
7 7 6 6 5 5 5 6 6 6 7 8 10 12 14 15 16 17 18 18 18 18 18 18 18 18 18 19 19 19 20 19 18 18 18 18 19 19 19 20 20 19 19 19 19 19 20 20 20 20 20 20 20 20 20 20 20 19 18 18 18 18 18 19 19 20 20 21 22 23 24 25 25 26 26 27 28 29 29 30 31 32 33 34 34
7 6 5 5 5 5 5 6 7 7 8 8 9 11 12 13 14 15 17 19 18 16 16 16 16 17 17 17 18 18 19 19 18 18 18 18 19 19 19 20 20 20 20 19 20 20 20 21 21 21 20 20 20 20 20 19 18 18 18 18 18 19 19 20 21 21 22 23 24 25 26 26 27 28 28 29 29 30 31 31 32 33 33 34 35
7 5 5 4 5 5 5 6 7 8 9 10 10 11 11 13 14 15 16 17 17 15 15 15 15 15 14 14 15 16 17 17 17 17 17 17 17 18 18 19 19 20 20 20 20 20 20 21 21 21 21 20 19 18 17 16 17 17 17 18 19 19 20 21 22 23 24 24 25 26 26 27 28 29 29 30 31 31 32 32 33 33 34 35 36
6 5 5 5 5 5 6 6 6 7 8 10 12 12 11 12 14 15 16 16 16 15 15 15 15 14 14 14 14 15 16 16 17 17 17 17 17 17 18 18 19 20 20 20 20 20 20 20 20 19 18 17 16 16 15 15 16 17 18 19 20 20 21 22 23 24 24 25 26 26 27 27 28 28 29 30 30 31 32 33 33 34 35 36 37
7 6 6 5 5 6 6 6 7 7 8 9 11 12 12 12 13 14 15 15 15 15 15 16 16 15 15 15 15 15 16 16 16 16 17 17 17 17 17 18 19 19 19 19 19 19 18 17 16 16 15 15 15 15 16 17 18 19 19 20 21 22 23 23 24 24 25 25 25 26 26 27 28 28 29 30 30 31 32 33 34 34 35 36 37
7 7 7 7 6 6 6 6 7 7 7 8 10 11 12 12 13 14 14 14 14 14 14 14 14 14 14 15 15 15 15 16 16 16 16 16 16 16 16 17 17 17 17 17 16 16 16 15 15 15 15 16 16 17 18 19 19 20 21 21 22 23 23 24 24 24 24 24 25 26 26 27 28 29 29 30 30 31 32 33 34 34 35 36 37
8 7 7 7 7 6 6 6 6 6 7 8 9 11 11 12 12 13 13 13 13 13 13 13 13 14 14 15 15 15 15 15 14 14 14 14 14 14 14 14 14 14 14 14 15 15 16 17 17 17 18 18 19 19 20 21 21 21 22 22 23 23 23 23 23 23 24 24 25 26 27 28 29 29 30 30 31 32 33 34 34 35 36 37 38
9 8 8 8 8 7 6 6 5 5 6 7 8 9 10 11 11 11 12 12 12 12 12 12 13 13 13 13 14 13 13 13 13 13 13 14 14 14 14 14 15 15 16 16 17 18 18 19 19 19 20 20 20 21 21 22 22 22 22 23 23 23 23 23 23 24 25 25 26 27 28 29 29 30 31 31 32 33 34 34 35 36 37 38 39
10 9 9 9 9 9 8 7 6 6 7 7 7 8 9 11 12 12 13 13 13 12 12 12 11 12 12 12 13 13 13 13 14 14 15 15 16 16 17 17 18 18 19 19 19 19 20 20 20 21 21 21 21 22 22 22 22 22 22 23 23 23 23 24 24 25 26 26 27 28 29 29 30 31 31 32 33 34 35 35 36 37 38 39 39
10 10 10 10 10 10 9 9 9 8 8 8 8 8 9 10 11 12 13 14 14 14 14 13 13 13 13 14 14 15 15 15 16 16 17 17 17 18 19 19 19 20 20 20 20 19 19 20 20 20 21 21 21 22 22 22 22 22 22 23 23 24 24 25 25 26 26 27 28 28 29 30 30 31 32 32 33 34 35 35 36 37 38 38 39
10 10 10 10 10 10 10 11 11 11 11 10 10 10 10 10 11 12 13 14 14 14 14 15 15 15 16 16 17 17 17 18 18 18 18 18 19 19 19 20 20 20 20 19 19 19 19 19 20 20 20 21 21 21 21 22 22 22 23 23 23 24 25 25 25 26 27 27 28 28 29 30 30 31 32 33 33 34 35 35 36 37 37 37 37
10 11 11 11 10 10 10 11 12 13 13 13 12 12 12 12 12 13 13 14 15 15 15 16 16 17 17 18 18 19 19 19 19 19 19 19 19 19 20 19 19 19 19 19 19 20 20 20 20 20 20 20 21 21 21 22 22 22 23 23 24 24 24 25 26 26 27 27 28 28 29 30 30 31 32 32 33 34 34 35 35 36 36 36 36
11 11 12 12 11 10 10 11 12 12 13 13 13 14 14 14 14 15 15 15 16 16 17 17 18 18 18 19 19 19 19 20 20 20 20 20 19 19 19 19 19 19 19 20 20 20 20 20 20 20 20 20 20 21 21 21 22 22 23 23 24 24 24 25 26 26 27 27 28 29 30 30 31 31 32 32 33 34 34 35 35 35 35 35 34
11 11 12 13 13 12 12 12 12 13 13 13 14 14 14 15 15 16 16 16 16 16 16 16 17 17 18 18 18 19 19 19 19 19 19 19 19 18 18 19 19 19 20 20 20 20 20 20 20 20 20 20 20 21 21 21 22 22 23 23 23 24 24 25 26 26 27 28 28 29 30 31 31 31 32 32 33 33 34 34 34 34 34 33 33
12 12 13 13 13 13 13 13 13 14 14 14 14 14 15 15 15 16 16 16 16 16 16 16 16 17 17 17 17 17 17 17 17 18 18 18 19 19 19 19 19 19 19 19 19 19 19 19 19 20 20 20 20 21 21 21 22 22 22 23 23 24 24 25 26 27 27 28 29 30 30 31 31 32 32 32 32 32 32 32 32 32 31 30 29
14 14 14 13 14 14 14 14 14 14 14 15 15 15 15 15 15 15 16 16 16 16 17 17 17 17 17 18 18 17 17 17 18 18 18 19 19 20 20 20 20 20 20 20 20 20 20 20 20 20 20 20 20 21 21 21 21 22 22 23 23 24 25 26 26 27 28 28 29 30 30 31 31 31 31 30 30 30 29 29 29 28 27 26 25
15 15 14 14 14 14 15 15 15 15 16 16 16 16 16 16 16 16 16 16 17 17 17 18 18 18 18 18 18 18 18 18 18 18 19 19 20 20 21 21 20 21 21 21 21 21 21 21 20 20 20 20 20 20 21 21 22 22 23 24 24 24 25 26 26 27 27 28 29 29 29 29 30 30 29 29 28 27 27 26 25 24 23 23 22
15 15 15 15 15 15 15 15 15 16 16 17 17 18 18 18 18 18 18 18 18 18 18 19 19 19 19 19 19 19 18 18 19 19 19 20 20 21 21 21 21 22 22 22 22 22 21 21 21 20 20 20 20 21 21 22 22 23 23 24 24 24 25 25 26 26 27 28 28 28 28 28 28 28 27 27 26 25 24 24 23 22 21 21 20
16 16 16 16 16 16 16 16 16 16 17 18 18 18 18 18 19 19 18 18 19 19 19 20 20 20 21 21 21 21 21 21 21 21 21 21 22 22 22 22 22 22 22 22 22 21 21 20 20 20 20 20 20 21 21 22 22 23 23 23 23 24 24 24 25 25 26 27 27 27 26 27 26 26 25 24 24 23 22 22 21 21 20 20 20
16 16 16 16 17 17 17 17 17 17 17 18 19 19 19 19 19 19 20 20 20 20 20 21 21 22 22 22 22 22 22 22 22 22 22 22 22 22 22 22 22 22 21 21 21 20 20 19 19 19 19 20 20 21 21 22 22 22 22 22 23 23 23 24 24 25 26 26 26 25 25 25 24 24 23 22 22 21 21 20 20 19 19 19 20
17 17 17 17 17 17 18 18 18 18 18 18 19 19 20 20 20 20 20 21 21 21 22 22 23 23 23 23 23 23 23 23 23 22 22 22 22 22 21 21 20 20 19 19 19 18 18 18 18 19 19 19 19 20 20 20 21 21 21 21 22 22 23 23 24 25 25 25 24 23 23 23 22 22 21 21 20 20 20 19 19 19 19 19 19
17 17 17 17 18 18 18 18 19 19 19 19 19 20 20 20 20 20 21 21 21 22 22 23 23 23 23 23 23 23 23 23 23 23 22 22 21 21 20 20 19 19 18 18 18 18 18 18 18 18 18 18 19 19 19 19 20 20 20 20 21 22 22 23 23 24 23 23 22 22 21 21 20 20 20 20 19 19 18 18 18 18 18 19 19
16 16 17 17 17 18 18 19 19 20 20 20 20 20 20 20 20 21 21 21 21 22 22 22 22 22 22 22 22 23 23 23 23 23 22 22 21 21 20 20 19 19 18 18 18 18 17 17 17 18 18 18 18 18 18 19 19 19 19 20 21 21 21 22 22 22 22 21 20 20 19 19 19 19 19 18 18 18 17 17 17 18 18 18 18
13 14 15 16 16 17 17 18 19 19 19 19 19 20 20 20 20 21 21 21 21 21 21 21 21 22 22 22 22 23 23 23 23 22 22 22 21 21 20 20 19 19 18 18 18 17 17 17 17 17 17 17 17 18 18 18 19 19 19 20 20 20 20 20 20 20 20 19 19 18 18 18 17 17 17 17 17 17 17 17 17 17 18 18 18
9 11 12 13 14 15 15 16 17 17 18 18 19 19 20 20 21 21 21 21 21 21 21 21 21 22 22 23 23 23 23 23 22 22 22 21 21 20 20 19 19 18 18 18 18 17 17 17 17 17 17 17 17 17 17 17 18 18 18 19 19 18 18 18 18 18 18 17 17 17 16 16 16 16 16 16 16 16 16 17 17 17 17 17 17
7 8 9 10 11 12 13 14 14 15 16 17 18 18 19 20 20 21 21 21 21 21 21 21 21 21 21 22 22 22 23 22 22 21 21 21 20 20 20 19 19 18 18 18 18 17 17 17 16 16 16 16 16 16 16 16 16 16 17 17 17 17 17 17 17 16 16 16 15 15 15 15 15 15 15 15 15 15 15 16 16 17 17 17 17
8 8 9 9 9 10 10 11 12 13 14 15 16 17 18 18 19 20 20 21 21 21 21 21 21 21 21 21 21 21 21 21 21 20 20 20 20 20 20 19 19 18 18 17 17 17 17 16 16 16 16 16 16 16 15 16 15 15 16 16 16 16 16 15 15 15 15 15 15 14 14 14 14 14 14 14 15 15 15 16 16 16 16 16 16
9 9 9 9 9 10 10 10 11 11 12 13 14 15 16 17 17 18 19 20 21 21 21 21 21 21 21 21 20 20 20 20 20 20 20 20 20 20 19 19 18 18 17 17 17 17 16 16 16 16 16 15 15 15 15 15 15 15 15 15 15 14 14 14 14 14 14 14 13 13 13 13 13 14 14 14 14 15 15 15 15 15 15 15 15
11 10 10 10 10 10 10 10 10 11 11 12 13 14 15 15 16 16 17 18 19 20 20 21 21 21 21 20 20 20 20 20 20 20 20 19 19 19 19 19 18 17 17 17 17 16 16 16 16 16 15 15 15 15 15 15 15 14 14 13 13 13 13 13 13 13 13 13 13 13 13 13 13 14 14 14 14 14 14 14 14 14 14 14 14
12 12 12 12 11 11 11 11 11 11 12 13 13 14 15 15 16 16 17 17 18 19 19 20 20 20 20 20 19 19 19 19 19 19 18 18 19 19 19 18 18 17 17 17 16 16 16 15 15 15 15 15 15 15 14 14 14 13 13 12 12 12 12 12 13 13 13 13 13 13 13 13 13 13 13 13 13 13 13 13 12 13 13 13 13
12 12 13 13 13 12 12 12 12 13 13 14 14 15 15 15 16 17 17 17 17 18 18 18 18 18 18 19 19 18 18 18 17 17 17 17 17 18 18 18 17 17 17 16 16 15 15 15 15 15 15 15 14 14 13 13 12 12 12 11 11 11 12 12 12 12 12 12 12 12 12 12 12 12 12 11 11 11 11 11 12 12 13 13 13
12 13 13 14 14 14 13 13 13 13 14 14 15 15 15 16 16 16 17 17 17 17 17 17 18 18 18 17 17 18 17 17 16 16 16 16 16 17 17 17 17 16 16 16 15 15 15 15 14 14 14 14 13 13 12 12 11 11 11 11 11 11 11 11 11 11 11 11 11 11 11 11 10 10 10 10 10 10 10 11 11 12 12 12 12
Wind_Direction
224 225 227 227 228 230 231 232 230 230 229 227 228 227 225 223 221 220 219 217 216 214 211 208 206 206 207 209 211 213 214 214 216 217 218 218 216 215 215 215 215 217 218 220 221 223 225 228 231 233 234 235 235 237 236 235 236 236 236 239 243 245 247 247 249 252 251 249 248 249 251 252 253 253 254 255 253 252 253 255 257 260 261 262 263
225 225 226 228 230 231 232 231 229 230 229 228 228 226 222 220 218 218 217 216 215 212 207 205 205 206 207 209 211 212 212 212 213 214 215 214 213 213 213 214 216 218 219 220 222 224 226 229 232 233 233 234 236 236 235 235 236 236 236 240 243 245 247 248 249 249 249 249 250 252 252 253 254 254 253 254 254 253 254 257 259 261 263 264 264
225 223 225 229 233 235 235 233 231 231 230 229 228 223 217 216 216 215 215 214 212 208 206 206 205 204 206 209 211 211 211 211 211 212 213 212 211 210 211 213 216 217 219 220 222 225 227 229 232 232 232 234 235 235 234 235 236 236 238 242 244 246 249 250 251 250 250 251 253 255 255 255 256 256 254 254 255 255 256 258 260 262 264 266 266
229 228 230 235 239 240 240 237 234 233 232 229 225 219 215 215 215 212 211 210 207 205 206 206 204 203 206 208 208 209 209 209 209 211 212 212 211 210 211 213 216 218 220 222 224 226 227 230 232 231 232 234 236 236 235 235 237 239 243 246 247 250 253 253 253 253 253 254 255 257 258 258 258 257 255 255 255 256 257 258 260 262 264 266 267
240 240 241 242 243 241 239 237 234 232 232 229 222 215 213 214 213 211 210 208 207 205 205 204 202 203 205 206 205 207 208 208 209 211 212 211 210 211 212 214 217 220 223 224 226 227 229 231 232 232 233 235 236 236 234 235 239 244 247 250 251 254 256 255 254 254 254 255 256 258 259 259 260 259 257 256 257 257 258 260 262 263 264 265 266
252 249 248 247 245 242 239 236 232 230 229 225 218 213 213 213 211 209 208 207 207 205 202 202 203 204 204 205 205 206 207 208 210 212 213 212 212 214 216 218 219 221 224 226 227 229 231 232 232 233 233 233 232 234 236 239 245 248 251 252 254 255 256 256 255 254 255 256 256 258 259 258 260 261 260 258 258 259 260 262 263 263 264 265 266
259 256 254 252 248 244 240 235 230 226 225 220 214 213 213 210 208 209 208 205 204 202 201 204 207 206 205 205 205 206 207 209 211 213 214 215 217 220 221 219 218 219 223 226 227 229 231 232 233 232 232 233 235 238 241 246 250 252 253 254 254 254 255 256 256 255 256 256 256 258 259 259 260 262 262 261 261 262 262 262 264 264 264 266 267
269 265 262 259 253 246 238 233 229 225 222 216 212 212 211 208 208 209 205 201 201 202 204 207 207 206 205 203 203 204 206 210 216 219 220 221 222 221 219 216 215 218 222 224 227 229 231 232 232 233 234 237 239 241 244 249 253 255 256 255 254 253 254 256 256 256 256 256 257 258 260 261 261 262 264 263 262 264 263 263 266 268 268 269 270
279 273 269 265 259 249 239 233 228 223 218 214 211 211 210 208 207 204 200 199 203 206 207 207 205 204 204 203 203 205 210 215 220 221 220 220 218 216 213 213 215 219 222 224 226 228 229 230 231 233 235 237 239 243 247 252 257 258 259 258 254 252 252 255 256 256 255 255 257 259 260 261 262 263 264 265 265 267 267 265 267 270 272 272 272
286 280 273 267 259 249 239 232 224 217 212 210 209 209 208 206 204 202 202 203 206 207 206 205 204 204 204 204 205 208 213 216 215 214 212 212 213 212 212 214 217 219 222 222 223 226 229 231 234 235 237 239 243 248 252 257 260 262 262 261 258 255 255 256 257 257 256 256 258 260 261 263 264 265 266 269 270 271 270 269 269 272 273 274 275
295 286 277 269 259 246 236 227 217 210 208 207 207 208 208 207 206 206 205 205 207 207 206 205 205 206 206 207 208 210 213 213 211 210 210 211 212 212 212 214 216 220 222 221 222 226 230 234 237 240 242 244 247 251 256 260 263 264 264 263 263 262 261 260 259 258 258 259 261 263 263 264 267 267 268 271 272 273 273 273 273 274 274 274 276
310 301 289 277 261 245 233 222 212 208 207 207 207 208 208 208 206 205 204 204 205 206 206 206 207 207 208 208 208 210 212 212 211 212 212 212 213 213 214 215 217 221 222 223 224 227 231 236 240 243 246 248 251 254 257 261 264 265 266 266 267 268 268 266 264 262 261 263 264 266 266 267 269 270 271 273 274 274 275 276 275 275 276 275 276
321 313 304 291 269 249 234 221 213 211 210 209 210 210 208 206 205 203 201 201 202 204 205 206 207 209 209 209 210 211 212 212 212 212 212 212 212 213 214 216 218 221 223 225 227 230 233 238 242 246 249 252 255 258 260 262 264 266 267 268 269 270 271 271 270 268 267 267 268 270 271 271 273 274 274 275 275 275 275 276 276 276 276 276 277
328 319 310 304 285 258 238 222 215 215 213 211 210 207 205 204 203 201 200 200 202 204 205 206 208 210 210 210 210 211 212 212 212 213 213 213 213 214 215 216 218 221 224 228 230 233 237 241 244 247 251 254 258 260 262 264 265 266 266 267 269 270 271 272 272 271 271 270 271 272 273 273 274 275 276 276 276 276 276 277 277 277 278 278 279
332 326 314 306 298 270 244 227 219 217 214 210 207 204 204 204 202 201 201 203 205 206 206 208 210 211 211 211 210 211 212 211 212 214 215 215 215 216 216 217 219 223 226 229 232 236 239 242 245 249 251 255 259 262 264 266 268 268 268 269 270 270 271 271 272 272 272 273 273 274 274 275 275 275 276 276 276 277 277 277 278 279 280 281 281
333 331 319 303 294 273 245 231 219 211 208 207 205 204 204 204 203 203 205 206 207 208 208 210 210 210 210 211 210 210 211 213 215 216 217 216 217 219 220 221 223 226 229 232 235 238 241 244 248 250 252 256 261 265 267 269 271 271 272 273 273 273 274 275 275 275 275 275 276 276 277 278 278 277 278 278 278 279 279 279 280 280 282 282 282
332 330 324 307 290 267 242 233 220 208 206 207 205 205 205 204 205 208 208 207 206 207 208 209 210 209 208 209 210 210 213 216 217 218 219 219 221 223 224 225 228 230 233 236 239 242 246 250 253 254 256 260 264 267 269 271 273 273 274 275 276 276 277 278 279 279 279 279 279 280 280 280 281 281 282 282 282 282 282 283 283 283 283 283 283
327 322 318 309 293 268 242 235 227 213 210 209 207 206 206 206 208 209 208 207 206 206 207 207 208 209 208 209 211 212 214 217 219 220 220 220 221 223 224 224 228 232 235 238 241 245 250 255 258 259 261 265 269 271 272 273 273 273 274 275 276 276 277 278 279 281 281 281 282 282 283 284 284 285 285 285 285 285 286 286 285 285 285 284 284
319 313 309 303 290 269 248 240 236 225 218 214 210 209 209 209 210 210 209 208 208 208 207 207 208 211 213 214 215 215 216 219 222 222 222 223 226 229 229 230 233 237 240 243 245 248 253 257 259 261 264 268 271 273 274 275 274 273 273 273 274 276 277 278 279 281 281 282 283 284 285 285 286 286 286 287 287 288 287 287 286 286 286 286 286
312 308 303 294 282 272 259 250 243 234 227 219 210 206 208 210 211 210 209 208 208 209 210 210 212 214 216 218 218 219 220 222 224 227 229 231 234 237 238 238 239 242 245 248 250 253 257 259 262 265 267 269 271 274 274 274 273 270 270 271 274 277 279 280 281 282 283 284 284 285 286 286 287 287 287 288 289 289 289 288 288 287 287 287 288
313 308 299 288 278 274 268 259 248 236 231 227 217 209 208 209 210 209 205 204 205 207 208 209 211 214 219 220 220 221 223 224 227 231 235 236 238 240 241 241 241 243 247 250 253 256 259 261 263 265 267 269 273 273 271 269 268 268 270 274 276 278 280 281 282 283 284 285 286 286 287 288 288 288 289 289 289 290 290 289 289 289 288 289 289
311 311 303 289 278 272 267 260 249 237 234 233 228 223 219 215 214 212 206 202 202 204 205 205 206 210 215 217 218 221 224 225 227 232 236 237 239 240 241 243 244 247 250 252 255 258 259 261 262 264 265 267 269 268 267 267 269 271 274 277 278 280 281 282 283 284 285 286 287 288 288 289 289 289 289 289 289 289 290 290 289 289 289 289 289
297 302 299 288 278 272 267 261 249 239 236 232 226 224 223 218 215 212 209 207 208 209 210 210 210 214 218 221 223 225 226 227 229 232 235 237 239 242 243 245 247 249 251 254 256 258 260 261 261 262 262 263 263 264 266 269 271 273 276 278 280 281 283 284 286 287 287 288 289 289 290 291 291 291 290 290 290 290 290 290 290 290 290 290 290
289 294 295 290 280 273 269 264 255 247 241 233 225 223 223 220 214 211 210 212 214 215 216 217 219 222 225 227 229 228 228 228 230 233 235 238 241 244 246 248 249 251 253 256 257 258 258 259 259 259 260 261 263 264 267 270 273 276 278 280 281 283 285 286 287 288 289 290 290 291 292 292 292 292 292 291 291 291 291 291 291 290 291 291 292
287 290 292 289 282 272 267 267 262 252 240 231 225 223 222 221 218 218 219 219 218 218 218 221 223 225 226 227 228 229 230 232 234 236 239 241 243 246 248 250 251 253 254 255 255 256 256 257 259 261 263 264 266 267 270 273 276 279 281 282 283 285 286 287 288 289 290 291 292 292 293 293 293 293 293 293 293 292 292 292 292 292 293 293 294
282 283 285 285 281 274 269 270 266 253 240 231 226 224 223 220 218 220 221 220 218 219 221 225 227 229 230 230 230 230 232 233 234 237 239 241 244 247 249 251 252 253 254 255 256 258 260 261 262 263 265 266 267 269 272 275 278 280 283 284 285 286 287 288 289 290 291 292 293 294 294 295 295 295 295 295 294 294 294 294 294 294 295 295 295
273 273 275 277 276 273 268 264 256 244 236 231 227 225 223 219 217 220 220 218 218 220 224 227 229 229 229 229 227 227 227 229 232 236 239 241 244 248 251 253 254 255 257 260 262 263 264 264 265 265 266 267 269 272 274 277 279 281 283 285 287 288 289 290 291 292 293 294 295 295 296 296 296 296 296 296 296 296 296 296 296 296 296 296 296
266 263 262 261 263 262 258 253 247 240 233 231 233 234 229 223 221 225 228 228 228 227 226 227 227 225 224 224 225 226 230 234 239 243 245 247 248 250 253 255 257 259 261 263 264 265 265 266 267 267 268 270 272 274 276 278 280 282 285 287 288 289 290 291 291 293 293 294 295 296 296 296 296 297 297 297 297 297 297 297 297 297 297 297 297
262 257 255 253 253 253 250 246 243 240 237 237 239 239 237 233 230 229 230 232 232 232 231 231 231 231 231 232 234 236 240 244 247 248 249 251 252 254 256 258 260 262 263 263 264 265 266 267 269 269 270 272 273 275 277 279 281 284 285 287 288 288 289 291 291 292 293 294 295 296 297 297 298 298 299 299 299 299 299 299 299 299 299 299 300
257 254 254 255 255 253 249 246 244 243 242 242 240 237 237 240 240 236 234 235 236 236 237 237 238 239 240 242 244 245 246 249 251 252 253 255 257 258 260 261 262 262 263 264 265 266 268 269 270 271 271 272 274 276 278 280 282 284 285 286 287 288 289 290 291 292 293 294 296 297 298 299 300 300 301 301 301 301 301 301 301 301 302 302 302
259 258 258 259 259 256 252 250 250 249 247 246 243 241 240 242 245 245 243 243 243 245 245 246 247 248 248 248 250 251 252 254 255 256 257 258 259 260 261 262 261 262 262 264 266 267 268 269 270 271 272 274 276 278 279 280 282 283 284 285 286 288 289 291 292 293 294 296 298 299 300 301 302 302 302 302 303 303 304 304 304 304 304 304 303
261 262 262 260 260 258 254 252 252 251 248 246 246 246 245 246 248 250 251 250 250 251 252 252 252 252 252 252 253 255 257 258 258 258 258 258 258 259 260 261 261 262 264 266 267 268 269 271 272 274 275 276 277 278 279 280 281 282 283 285 287 289 290 292 293 295 297 299 300 302 303 303 303 303 304 304 305 306 306 306 306 306 306 305 305
262 264 264 262 261 259 257 256 255 252 248 246 246 246 245 245 246 248 250 251 252 253 254 254 253 253 253 254 256 257 259 259 258 257 256 256 256 257 259 261 263 265 268 269 270 271 272 274 274 275 276 276 276 277 278 280 281 283 284 286 288 290 291 293 295 297 299 300 302 303 303 304 304 305 306 307 307 308 308 308 308 307 307 307 306
264 265 264 263 261 260 259 258 257 254 251 250 249 248 247 246 247 247 249 251 252 253 255 257 257 257 257 258 259 261 262 261 259 257 255 255 255 257 260 263 266 269 270 271 271 271 272 272 273 273 274 275 276 278 279 281 284 286 287 289 290 291 293 295 297 299 300 301 302 303 304 305 306 307 308 308 308 308 308 308 308 308 308 308 308
266 266 265 263 261 260 259 258 256 254 253 253 253 252 252 251 252 252 253 254 255 256 257 258 259 260 259 259 260 262 263 263 262 260 259 257 258 259 262 264 267 269 270 270 271 271 272 272 273 274 275 276 278 280 282 284 287 288 289 290 292 293 296 297 298 299 300 302 303 304 305 306 307 308 308 308 309 310 310 310 309 309 310 310 311
266 266 266 265 263 262 261 259 257 254 253 252 253 252 252 253 253 254 254 254 256 257 257 258 259 260 261 261 261 262 263 264 263 263 262 261 261 262 263 264 266 268 270 271 272 272 273 274 274 275 277 278 280 282 283 285 287 289 291 292 293 295 297 298 299 300 302 303 305 305 306 307 307 308 309 310 311 311 311 311 311 311 312 313 313
265 265 265 265 264 263 262 261 260 257 255 255 254 254 254 255 256 256 256 257 257 257 257 257 257 258 259 261 261 262 262 263 263 263 264 264 264 265 265 265 267 269 270 271 272 272 272 273 274 275 277 278 280 281 283 285 287 289 292 294 294 295 297 299 300 301 303 305 306 306 307 308 309 310 310 311 311 311 311 311 311 311 312 313 314
264 265 265 265 265 264 263 262 261 260 259 259 258 256 257 258 260 260 261 261 261 261 261 260 260 259 259 259 260 261 262 264 264 265 266 266 266 266 266 267 268 268 269 270 270 270 271 271 273 274 276 278 280 282 285 287 288 290 292 294 295 297 298 300 301 303 304 305 305 306 307 309 309 310 311 311 311 311 310 310 310 311 311 312 314
267 267 268 268 267 266 265 264 262 261 261 261 260 258 257 258 260 261 262 263 263 263 263 263 263 262 261 260 260 261 262 264 265 266 266 266 266 266 266 267 267 267 268 268 268 268 269 270 272 274 277 279 282 284 286 289 290 290 292 295 297 298 299 300 301 303 304 304 305 306 308 309 309 309 309 310 310 309 309 309 310 311 312 313 315
270 269 270 270 270 269 268 267 265 265 264 264 263 261 259 259 260 261 262 263 263 264 265 265 265 263 262 261 261 262 263 264 266 266 265 266 266 266 266 266 266 266 266 266 266 268 269 271 273 275 278 280 283 285 287 289 291 292 293 295 297 298 299 300 301 302 303 304 305 306 308 308 308 308 308 308 308 308 308 308 310 312 313 315 316
269 268 269 269 270 271 270 269 268 268 267 266 265 263 261 261 262 263 264 264 265 266 267 267 266 263 262 262 262 263 264 265 265 265 265 266 266 266 266 265 265 265 265 265 267 269 271 273 275 277 278 281 283 285 287 289 291 293 295 296 297 298 299 301 302 302 303 304 305 306 307 307 306 306 306 305 306 307 307 309 311 313 315 317 318
270 268 268 268 269 269 269 269 268 267 267 267 266 264 263 263 264 265 265 266 267 268 269 268 266 264 263 263 264 264 265 266 265 265 265 265 265 264 264 264 264 264 264 266 268 270 273 275 276 277 279 281 283 285 287 289 291 293 294 296 298 299 300 302 303 303 304 304 305 305 306 305 305 305 304 304 305 307 309 311 313 315 316 317 317
277 274 273 272 272 271 270 270 268 267 266 265 265 264 265 265 265 265 266 267 267 269 269 268 267 266 265 264 264 265 265 266 264 263 263 263 262 262 262 262 263 264 264 266 267 269 272 274 276 278 280 282 283 285 287 289 291 293 294 297 299 301 302 304 305 305 306 306 306 306 306 305 305 305 305 305 307 309 311 313 314 315 316 317 318
294 287 284 281 280 278 276 274 273 271 269 268 267 267 267 267 267 266 267 268 268 269 270 270 269 267 266 265 265 264 264 264 263 261 261 261 261 261 261 261 262 263 264 265 266 267 269 272 274 277 280 281 283 285 287 290 293 295 296 298 300 303 305 306 307 307 308 309 308 308 307 306 306 307 308 309 311 312 314 314 315 315 317 318 319
321 313 305 298 293 290 286 282 280 278 276 274 273 272 271 271 270 268 269 270 270 271 271 272 271 270 269 267 266 265 264 263 262 261 260 260 260 260 260 260 261 262 263 263 264 265 267 270 272 275 278 280 283 285 288 291 295 297 299 300 301 304 306 307 307 308 310 310 309 309 308 308 309 310 311 312 313 314 314 315 315 316 317 318 319
338 332 325 317 310 305 299 293 290 287 283 281 280 278 276 275 273 271 271 271 272 272 273 273 273 273 271 270 268 266 264 262 261 260 260 259 259 258 258 258 258 259 261 262 263 264 266 268 270 272 276 279 282 285 288 291 294 297 300 301 302 303 305 306 307 309 310 310 309 308 309 310 311 312 311 312 313 313 315 316 317 318 318 319 320
352 345 337 328 322 317 311 306 302 297 292 289 288 284 281 279 277 275 273 273 273 273 273 273 273 273 272 271 270 267 265 262 260 259 259 258 257 256 255 255 255 257 259 260 261 263 265 266 268 271 274 278 281 285 288 290 293 295 298 301 303 304 305 306 308 309 310 309 308 308 308 309 310 310 311 312 313 315 316 318 320 321 322 322 323
358 352 346 339 332 326 320 314 310 307 304 301 297 292 288 285 283 281 279 277 276 275 274 274 273 273 272 272 271 268 266 264 262 260 258 257 256 254 253 253 253 255 257 259 260 262 264 266 268 271 273 276 279 283 286 288 291 293 296 299 303 305 306 308 310 311 311 310 309 309 309 309 310 311 312 314 315 317 319 321 323 325 327 328 328
356 353 349 345 340 334 328 321 316 312 311 309 306 301 296 292 289 287 285 284 282 279 276 274 273 272 272 271 270 268 266 264 263 260 258 257 255 254 252 252 252 254 255 257 258 261 263 266 268 270 273 275 278 281 284 286 289 291 294 297 301 304 307 309 311 312 312 311 310 310 310 311 313 314 314 315 316 318 321 324 326 328 330 331 332
354 352 350 347 342 338 333 328 322 317 313 310 308 307 304 300 295 292 290 288 287 283 279 275 272 272 272 271 269 267 265 264 262 260 258 257 255 254 252 252 252 252 253 255 257 260 263 265 268 270 272 274 277 279 281 283 285 287 291 294 298 301 305 308 310 311 311 312 312 312 313 315 316 317 317 317 319 321 323 325 327 329 331 333 334
347 348 348 346 344 341 337 333 328 323 318 314 312 311 309 306 302 298 294 291 289 286 282 277 273 271 271 270 268 267 265 263 261 260 259 257 255 253 252 252 251 251 252 254 256 259 262 265 267 269 271 273 275 277 278 280 282 285 289 293 296 299 303 307 310 311 313 314 315 317 318 320 321 320 320 321 323 324 326 328 330 332 334 336 338